Hourly Data Report for August 02, 2021

ALGONQUIN PARK EAST GATE
ONTARIO
Current Station Operator: ECCC - MSC

45°32'00.000" N
78°16'00.000" W
397.00 m
6080192
71581
TNK

Download Data

Hourly Data (August 2021)
Hourly Data Report for August 2, 2021
TIME
LST
Temp Definition
°C
Dew Point Definition
°C
Rel Hum Definition
%
Precip. Amount Definition
mm

Wind Dir Definition
10's deg

Wind Spd Definition
km/h
Visibility Definition
km
Stn Press Definition
kPa
Hmdx Definition


Wind Chill Definition


Weather Definition


00:00 9.5 9.1 98 0.0 11 2   96.80     LegendNANA
01:00 8.3 8.0 97 0.0 0 1   96.82     LegendNANA
02:00 7.5 7.2 98 0.0   0   96.84     LegendNANA
03:00 6.5 6.2 98 0.0   0   96.88     LegendNANA
04:00 5.9 5.6 98 0.0   0   96.92     LegendNANA
05:00 5.1 4.8 98 0.0   0   96.97     LegendNANA
06:00 5.5 5.3 98 0.0   0   97.03     LegendNANA
07:00 9.2 8.8 97 0.0   0   97.08     LegendNANA
08:00 14.0 11.6 86 0.0   0   97.10     LegendNANA
09:00 16.6 9.1 61 0.0 2 4   97.11     LegendNANA
10:00 18.0 7.9 52 0.0 1 8   97.13     LegendNANA
11:00 19.5 8.4 49 0.0 34 7   97.10     LegendNANA
12:00 20.4 8.7 47 0.0 34 6   97.06     LegendNANA
13:00 21.8 9.4 45 0.0 30 5   97.02     LegendNANA
14:00 21.7 8.9 44 0.0 29 6   97.00     LegendNANA
15:00 22.7 10.5 46 0.0 26 7   96.96     LegendNANA
16:00 22.1 8.6 42 0.0 28 7   96.94     LegendNANA
17:00 21.8 8.1 41 0.0 28 6   96.92     LegendNANA
18:00 19.4 10.4 56 0.0 28 2   96.92     LegendNANA
19:00 17.5 11.2 66 0.0 26 3   96.92     LegendNANA
20:00 14.3 11.0 80 0.0 0 1   96.96     LegendNANA
21:00 12.4 10.1 86 0.0   0   96.99     LegendNANA
22:00 11.2 9.6 90 0.0 12 2   97.04     LegendNANA
23:00 11.0 10.0 93 0.0 10 1   97.05     LegendNANA

Notes on Data Quality.

Legend

  • E = Estimated
  • M = Missing
  • NA = Not Available*
  • [empty] = Indicates an unobserved value
Date modified: